Location: Praha
(50.0830°N, 14.4670°E)
Time: 14:26:28
(UTC+01:00)

ISS - Pass Details

Date: 19 March 2023
Orbit: 414 x 423 km, 51.6° (Epoch: 21 March)

Event Time Altitude Azimuth Distance (km) Brightness Sun altitude
Rises 19:25:42 0° 236° (SW) 2,350 0.7 -12.4°
Reaches altitude 10° 19:27:49 10° 231° (SW) 1,489 -0.5 -12.7°
Maximum altitude 19:31:04 52° 154° (SSE) 525 -3.6 -13.2°
Enters shadow 19:32:44 25° 88° (E) 886 -2.7 -13.5°
